Weather History for Squamish, BC

Change the Weather History Date:

Friday, October 5, 2012

  Actual Average Record
Temperature  
Mean Temperature 56 °F -  
Max Temperature 75 °F - - ()
Min Temperature 36 °F - - ()
Degree Days  
Heating Degree Days 10    
Growing Degree Days 6 (Base 50)    
Moisture  
Dew Point 35 °F    
Average Humidity 58    
Maximum Humidity 87    
Minimum Humidity 12    
Precipitation  
Precipitation 0.00 in - - ()
Sea Level Pressure  
Sea Level Pressure 30.30 in    
Wind  
Wind Speed 2 mph ()    
Max Wind Speed 7 mph    
Max Gust Speed -    
T = Trace of Precipitation, MM = Missing Value Source: Averaged Metar Reports

Daily Weather History Graph

Daily Weather History Graph

Search for Another Location

Airport:

Trip Planner

Search our weather history database for the weather conditions in past years. The results will help you decide how hot, cold, wet, or windy it might be!

Date:

Astronomy

Oct. 05, 2012 Rise Set
Actual Time 7:19 AM PDT 6:41 PM PDT
Civil Twilight 6:47 AM PDT 7:13 PM PDT
Nautical Twilight 6:10 AM PDT 7:50 PM PDT
Astronomical Twilight 5:32 AM PDT 8:28 PM PDT
Moon 9:42 PM PDT (10/5) 12:59 PM PDT (10/5)
Length of Visible Light 12h 25m
Length of Day
11h 21m
Waning Gibbous, 73% of the Moon is Illuminated
Oct 5
Waning Gibbous
Oct 8
Last Quarter
Oct 15
New
Oct 21
First Quarter
Oct 29
Full

Hourly Weather History & Observations

Time (PDT) Temp. Windchill Dew Point Humidity Pressure Visibility Wind Dir Wind Speed Gust Speed Precip Events Conditions
12:00 AM 41.5 °F - 34.9 °F 77% 30.32 in - North 1.2 mph - N/A   Unknown
1:00 AM 41.2 °F - 35.1 °F 79% 30.33 in - NNE 2.3 mph - N/A   Unknown
2:00 AM 40 °F - 35 °F 74% 30.34 in - NE 3.5 mph - -  
2:00 AM 40.1 °F 38.0 °F 34.5 °F 80% 30.34 in - NE 3.5 mph - N/A   Unknown
3:00 AM 38.8 °F - 34.0 °F 83% 30.34 in - NNE 2.3 mph - N/A   Unknown
4:00 AM 39.0 °F - 34.7 °F 84% 30.33 in - NE 2.3 mph - N/A   Unknown
5:00 AM 37.8 °F - 34.3 °F 87% 30.34 in - NE 2.3 mph - N/A   Unknown
6:00 AM 38.3 °F - 34.7 °F 87% 30.34 in - NE 2.3 mph - N/A   Unknown
7:00 AM 42.6 °F 39.9 °F 34.9 °F 74% 30.35 in - North 4.6 mph - N/A   Unknown
8:00 AM 40 °F - 35 °F 75% 30.35 in - NNE 3.5 mph - -  
8:00 AM 40.3 °F 38.2 °F 34.9 °F 81% 30.35 in - NNE 3.5 mph - N/A   Unknown
9:00 AM 43.2 °F - 36.9 °F 78% 30.36 in - NNE 1.2 mph - N/A   Unknown
10:00 AM 52.0 °F - 37.4 °F 58% 30.35 in - NNW 3.5 mph - N/A   Unknown
11:00 AM 59 °F - 36 °F 31% 30.33 in - ENE 2.3 mph - -  
11:00 AM 59.0 °F - 36.3 °F 43% 30.33 in - ENE 2.3 mph - N/A   Unknown
12:00 PM 63.5 °F - 33.8 °F 33% 30.32 in - NW 2.3 mph - N/A   Unknown
1:00 PM 69.1 °F - 33.3 °F 27% 30.29 in - WNW 2.3 mph - N/A   Unknown
2:00 PM 72 °F - 30 °F 12% 30.25 in - SSW 3.5 mph - -  
2:00 PM 71.6 °F - 30.2 °F 22% 30.25 in - SSW 3.5 mph - N/A   Unknown
3:00 PM 70.7 °F - 32.9 °F 25% 30.24 in - SE 6.9 mph - N/A   Unknown
4:00 PM 67.3 °F - 31.6 °F 27% 30.23 in - SSE 6.9 mph - N/A   Unknown
5:00 PM 63 °F - 32 °F 20% 30.23 in - SE 5.8 mph - -  
5:00 PM 63.1 °F - 31.6 °F 31% 30.23 in - SE 5.8 mph - N/A   Unknown
6:00 PM 58.3 °F - 36.3 °F 44% 30.23 in - North 1.2 mph - N/A   Unknown
7:00 PM 52.7 °F - 38.7 °F 59% 30.24 in - ENE 2.3 mph - N/A   Unknown
8:00 PM 49 °F - 39 °F 58% 30.25 in - Calm Calm - -  
8:00 PM 49.1 °F - 38.8 °F 68% 30.25 in - Calm Calm - N/A   Unknown
9:00 PM 46.9 °F - 38.8 °F 73% 30.26 in - NNE 1.2 mph - N/A   Unknown
10:00 PM 45.1 °F - 37.2 °F 74% 30.27 in - NNE 1.2 mph - N/A   Unknown
11:00 PM 44 °F - 37 °F 69% 30.27 in - NE 2.3 mph - -  
11:00 PM 44.4 °F - 37.2 °F 76% 30.27 in - NE 2.3 mph - N/A   Unknown